[[{"header":{"parameterUnit":"m.s-1","parameterCategory":1,"la1":30.2991,"la2":30.254,"lo1":-89.0895,"lo2":-89.0444,"dy":0.0017,"dx":0.0017,"nx":28,"ny":28,"refTime":"2025-05-19T03:00:00:Z","depth":0,"parameterNumber":2,"parameterNumberName":"U-component_of_WINDS"},"data":[0,0,0,0,0,0,0,0,0,0,0,0,0,0,0,0,0,0,0,0,0,0,0,0,0,0,0,0,0,0,0,0,0,0,0,0,0,0,0,0,0,0,0,0,0,0,0,0,0,0,0,0,0,0,0,0,0,0,0.6231,0.6231,0,0.6231,0.6231,0.6231,0.6214,0.6214,0.6213,0.6213,0.6212,0.6213,0.6213,0,0,0,0,0,0,0,0,0,0,0,0,0,0.6213,0.6214,0.6231,0.6231,0.6231,0.6231,0.6231,0.6231,0.6214,0.6214,0.6213,0.6213,0.6212,0.6213,0.6213,0,0,0,0,0,0,0,0,0,0,0,0,0,0.6218,0.6214,0.6231,0.6222,0.6221,0.6231,0.6231,0.6231,0.6214,0.6214,0.6213,0.6212,0.6212,0.6213,0.6213,0.623,0,0,0.6215,0.6215,0,0,0,0,0,0,0,0,0.6218,0.6219,0.6223,0.6223,0.6222,0.6222,0.6225,0.6231,0.6214,0.6217,0.6213,0.6212,0.6216,0.6216,0.6218,0.623,0.623,0.6215,0.6215,0.6216,0.6216,0,0,0,0,0,0,0,0.6217,0.6218,0.6231,0.6224,0.6223,0.6218,0.6218,0.6226,0.622,0.6217,0.6215,0.6216,0.6215,0.6217,0.6218,0.623,0.6215,0.6216,0.6216,0.6216,0.6255,0.6256,0,0,0,0,0,0,0.6218,0.6218,0.6231,0.6231,0.6218,0.6219,0.6219,0.6223,0.622,0.6219,0.6216,0.6215,0.6216,0.6217,0.6217,0.6236,0.6216,0.6216,0.6217,0.6254,0.6255,0.6256,0,0,0,0,0,0,0.6218,0.622,0.6231,0.6224,0.6225,0.622,0.6224,0.6223,0.6225,0.622,0.6219,0.6219,0.6216,0.6217,0.6227,0.6236,0.6217,0.6217,0.6254,0.6255,0.6256,0.6274,0,0,0,0,0,0,0.6218,0.622,0.6227,0.6224,0.6226,0.6241,0.6225,0.6223,0.6226,0.6224,0.6222,0.6221,0.6215,0.6226,0.6227,0.6236,0.6218,0.6253,0.6254,0.6255,0.6273,0.6276,0.6278,0,0,0,0,0,0.6217,0.6232,0.6227,0.6229,0.6234,0.6241,0.6242,0.6235,0.6227,0.6233,0.623,0.6221,0.6235,0.6227,0.6229,0.6238,0.6252,0.6254,0.6255,0.6271,0.6275,0.6278,0,0,0,0,0,0,0.6236,0.6232,0.6226,0.6241,0.6242,0.6238,0.6246,0.6239,0.6242,0.624,0.6232,0.6231,0.6243,0.6241,0.6233,0.6253,0.6242,0.6244,0.6254,0.6257,0.626,0.6259,0.6218,0,0,0,0,0,0.6242,0.6248,0.6244,0.6257,0.6258,0.6252,0.6255,0.625,0.625,0.625,0.6247,0.6247,0.6251,0.6254,0.6258,0.6273,0.6271,0.6279,0.6282,0.6284,0.6286,0.6292,0.6295,0.6261,0.6261,0.6261,0,0,0.6254,0.6252,0.6257,0.6261,0.6261,0.6267,0.6253,0.626,0.6264,0.6251,0.626,0.6258,0.6258,0.627,0.6275,0.6269,0.6295,0.6286,0.6288,0.6288,0.6294,0.6297,0.63,0.6262,0.6262,0.6261,0,0,0.6278,0.6279,0.6289,0.6289,0.6289,0.6284,0.6287,0.6285,0.6283,0.6292,0.6282,0.6286,0.6294,0.6293,0.6294,0.6317,0.6309,0.6319,0.6333,0.6339,0.6341,0.6344,0.6351,0.6353,0.632,0.632,0.632,0,0.6293,0.6302,0.6295,0.6303,0.6304,0.6293,0.6302,0.6302,0.6303,0.6304,0.6298,0.6306,0.6305,0.6316,0.6321,0.6323,0.6325,0.6319,0.6342,0.6344,0.6346,0.6352,0.6355,0.6321,0.6321,0.6321,0.6321,0,0.632,0.6326,0.6334,0.6335,0.6338,0.6346,0.634,0.6343,0.6337,0.6334,0.6342,0.634,0.6343,0.6345,0.634,0.6355,0.6351,0.6343,0.6331,0.635,0.6356,0.6359,0.6323,0.6323,0.6322,0.6322,0,0,0.6356,0.6352,0.6355,0.6355,0.6353,0.6358,0.6365,0.6367,0.637,0.6371,0.6376,0.6382,0.6374,0.6375,0.637,0.6375,0.6392,0.6366,0.6366,0.637,0.6407,0.6412,0.6415,0.6386,0.6387,0.6387,0.6406,0,0.6379,0.6392,0.6385,0.6399,0.6404,0.6392,0.6398,0.6398,0.6394,0.6397,0.6393,0.6397,0.6388,0.6388,0.6393,0.6389,0.6399,0.6387,0.639,0.639,0.639,0.6418,0.6424,0.6442,0.6409,0.6409,0.6409,0,0.6408,0.6409,0.6423,0.6419,0.6421,0.6427,0.6427,0.6431,0.6429,0.6426,0.6427,0.6419,0.6426,0.6414,0.6422,0.6414,0.6415,0.6413,0.6414,0.6413,0.64,0.6417,0.6447,0.645,0.6413,0.6413,0.6412,0,0.6431,0.6437,0.6445,0.6445,0.6441,0.6446,0.6444,0.6442,0.6443,0.6444,0.6444,0.6446,0.6446,0.6447,0.644,0.6432,0.6448,0.6436,0.6444,0.6445,0.6448,0.6447,0.6477,0.645,0.645,0.645,0.645,0,0.6457,0.6465,0.6456,0.6461,0.647,0.6461,0.647,0.6467,0.6465,0.6469,0.646,0.6463,0.6454,0.6456,0.6451,0.6457,0.6458,0.6455,0.6453,0.6455,0.6455,0.6455,0.6453,0.6451,0.645,0.645,0.645,0,0.6484,0.6478,0.6487,0.6482,0.6481,0.6487,0.6483,0.6487,0.6483,0.6487,0.6488,0.6481,0.6483,0.6476,0.6478,0.6474,0.6483,0.648,0.6483,0.6482,0.649,0.6489,0.652,0.6523,0.6495,0.6495,0.6496,0,0.6501,0.6507,0.6502,0.6504,0.6503,0.6506,0.6507,0.6499,0.65,0.6498,0.6502,0.6504,0.6505,0.6509,0.6503,0.6504,0.65,0.6511,0.65,0.6501,0.6499,0.6498,0.6498,0.6513,0.6513,0.6513,0.6514,0,0.653,0.6526,0.6528,0.6528,0.653,0.653,0.6529,0.6531,0.6522,0.6524,0.6526,0.6527,0.6528,0.6529,0.6528,0.6526,0.6518,0.6517,0.6519,0.6521,0.6522,0.652,0.6488,0.6516,0.6516,0.6516,0.6516,0.6516,0.6551,0.6555,0.6552,0.6555,0.6553,0.6552,0.6556,0.6551,0.6553,0.6553,0.6548,0.6551,0.6548,0.6546,0.6545,0.6546,0.6541,0.6544,0.6544,0.6545,0.6546,0.6522,0.6546,0.6546,0.6546,0.6546,0.6546,0,0.6578,0.6576,0.6578,0.6577,0.6578,0.6571,0.6569,0.6571,0.6573,0.6571,0.6572,0.6574,0.6574,0.6569,0.6569,0.6571,0.6567,0.6571,0.657,0.657,0.6551,0.6549,0.6574,0.6574,0.6574,0.6574,0.6574,0.6574,0.6592,0.6599,0.6595,0.66,0.6597,0.66,0.6599,0.6598,0.6597,0.6599,0.6599,0.6596,0.6592,0.6592,0.6592,0.659,0.659,0.6595,0.6592,0.6574,0.6571,0.6569,0.6567,0.6595,0.6595,0.661,0.661,0.661]},{"header":{"parameterUnit":"m.s-1","parameterCategory":1,"la1":30.2991,"la2":30.254,"lo1":-89.0895,"lo2":-89.0444,"dy":0.0017,"dx":0.0017,"nx":28,"ny":28,"refTime":"2025-05-19T03:00:00:Z","depth":0,"parameterNumber":3,"parameterNumberName":"V-component_of_WINDS"},"data":[0,0,0,0,0,0,0,0,0,0,0,0,0,0,0,0,0,0,0,0,0,0,0,0,0,0,0,0,0,0,0,0,0,0,0,0,0,0,0,0,0,0,0,0,0,0,0,0,0,0,0,0,0,0,0,0,0,0,5.0563,5.0564,0,5.0683,5.0684,5.0686,5.0635,5.0632,5.0629,5.0626,5.0743,5.0749,5.0754,0,0,0,0,0,0,0,0,0,0,0,0,0,5.0282,5.0288,5.0563,5.0564,5.0566,5.0683,5.0684,5.0686,5.0635,5.0632,5.0628,5.0625,5.0741,5.0748,5.0755,0,0,0,0,0,0,0,0,0,0,0,0,0,5.0403,5.0289,5.0562,5.0555,5.0555,5.0682,5.0684,5.0686,5.0636,5.0632,5.0627,5.0623,5.0739,5.0747,5.0756,5.0896,0,0,5.0782,5.0786,0,0,0,0,0,0,0,0,5.0396,5.0414,5.0554,5.0555,5.0556,5.0639,5.0628,5.0756,5.0637,5.0605,5.0626,5.0621,5.0712,5.0722,5.0754,5.0901,5.0906,5.0783,5.0788,5.0792,5.0795,0,0,0,0,0,0,0,5.0388,5.0408,5.061,5.0556,5.0557,5.0543,5.0555,5.0652,5.0681,5.0607,5.0604,5.0619,5.0711,5.0746,5.0756,5.0908,5.0783,5.0791,5.0796,5.0799,5.1175,5.1179,0,0,0,0,0,0,5.0381,5.0401,5.0606,5.0614,5.0464,5.0551,5.0565,5.0617,5.068,5.0685,5.0623,5.0617,5.0733,5.0746,5.076,5.0928,5.0792,5.08,5.0805,5.117,5.1176,5.1181,0,0,0,0,0,0,5.0375,5.0399,5.0601,5.0507,5.0531,5.0561,5.0619,5.0622,5.0656,5.0692,5.0696,5.0654,5.073,5.0748,5.0863,5.0931,5.0804,5.0812,5.1165,5.1172,5.1178,5.1264,0,0,0,0,0,0,5.0367,5.0398,5.0453,5.0508,5.0537,5.0704,5.0624,5.0627,5.0672,5.0665,5.0721,5.0726,5.0728,5.085,5.0871,5.0941,5.0819,5.1158,5.1168,5.1176,5.1255,5.1273,5.1289,0,0,0,0,0,5.0357,5.0471,5.0456,5.0481,5.0607,5.0708,5.0724,5.0726,5.0678,5.0732,5.0755,5.0725,5.092,5.0862,5.0886,5.0959,5.1154,5.1165,5.1176,5.1248,5.127,5.1288,0,0,0,0,0,0,5.042,5.0478,5.0462,5.0598,5.0649,5.0699,5.0768,5.0749,5.0813,5.0803,5.08,5.0813,5.0932,5.0957,5.0891,5.1097,5.103,5.1046,5.1076,5.1098,5.1114,5.1105,5.0826,0,0,0,0,0,5.0451,5.053,5.0575,5.0691,5.0717,5.0739,5.0783,5.078,5.0832,5.0852,5.0883,5.0933,5.1005,5.1053,5.1121,5.1259,5.1269,5.132,5.1337,5.1351,5.1364,5.1437,5.146,5.1216,5.1216,5.1216,0,0,5.0513,5.0554,5.0604,5.0704,5.0744,5.0824,5.0757,5.0845,5.0904,5.0865,5.0975,5.1,5.1055,5.1181,5.1238,5.1205,5.1434,5.1364,5.1375,5.1381,5.145,5.1473,5.1494,5.1223,5.1222,5.1221,0,0,5.0667,5.0708,5.0808,5.0849,5.0909,5.0923,5.0947,5.1001,5.1016,5.1127,5.1099,5.1168,5.1294,5.1334,5.137,5.154,5.1514,5.1562,5.1649,5.172,5.174,5.1757,5.1816,5.1837,5.1576,5.1576,5.1576,0,5.0736,5.0859,5.0861,5.0952,5.0996,5.0966,5.1066,5.1105,5.1184,5.1214,5.1177,5.1333,5.1368,5.1503,5.1544,5.1576,5.1601,5.1556,5.1737,5.1754,5.177,5.1826,5.1849,5.1581,5.1581,5.158,5.158,0,5.094,5.1025,5.1098,5.1178,5.123,5.1325,5.1339,5.1391,5.1384,5.1401,5.1513,5.1554,5.163,5.1662,5.1655,5.1796,5.1773,5.1737,5.1669,5.1799,5.1851,5.1873,5.1589,5.1587,5.1586,5.1584,0,0,5.1137,5.1217,5.1244,5.1279,5.1344,5.1409,5.1501,5.1578,5.1622,5.1678,5.1754,5.1861,5.1827,5.1869,5.1866,5.1929,5.2059,5.1884,5.1885,5.1914,5.2215,5.2241,5.2267,5.2042,5.2046,5.205,5.221,0,5.1296,5.1461,5.1465,5.1615,5.1693,5.1666,5.1746,5.1793,5.1811,5.1878,5.1896,5.1972,5.1923,5.1948,5.2009,5.203,5.2119,5.2019,5.2111,5.2114,5.2098,5.2295,5.2323,5.2472,5.2231,5.2234,5.2237,0,5.1503,5.1567,5.1726,5.1779,5.1812,5.1884,5.1954,5.2019,5.2071,5.2079,5.2127,5.2114,5.2206,5.2136,5.2262,5.2194,5.2232,5.2248,5.2254,5.2261,5.2183,5.2306,5.252,5.2542,5.227,5.2267,5.2265,0,5.163,5.1756,5.1867,5.1898,5.1963,5.2014,5.2043,5.2091,5.2137,5.2197,5.2226,5.2296,5.2334,5.2387,5.2393,5.2342,5.2519,5.245,5.2527,5.2527,5.2565,5.2562,5.2786,5.2591,5.2591,5.259,5.259,0,5.1806,5.1904,5.1925,5.1993,5.21,5.2103,5.2209,5.2234,5.2277,5.2347,5.2328,5.2394,5.2398,5.2465,5.247,5.2573,5.259,5.2598,5.2598,5.2599,5.2598,5.2623,5.2613,5.2596,5.2595,5.2594,5.2593,0,5.1966,5.1984,5.2103,5.2155,5.217,5.2247,5.2291,5.2355,5.2371,5.246,5.2481,5.2506,5.2584,5.2596,5.2687,5.269,5.2813,5.2802,5.2796,5.2794,5.287,5.2862,5.3118,5.3151,5.2935,5.2937,5.2938,0,5.2077,5.2151,5.2212,5.2259,5.2291,5.2367,5.2414,5.2419,5.2468,5.2533,5.2589,5.2665,5.2727,5.2853,5.2877,5.2947,5.2937,5.3022,5.2947,5.2946,5.2937,5.2932,5.2939,5.3036,5.3038,5.304,5.3041,0,5.2271,5.2276,5.2346,5.2419,5.2475,5.2532,5.2586,5.2625,5.2636,5.2692,5.2773,5.2821,5.2915,5.2991,5.3059,5.3086,5.3066,5.3065,5.3086,5.3088,5.3081,5.3085,5.2834,5.3059,5.3057,5.3056,5.3055,5.3054,5.2409,5.2474,5.2527,5.2604,5.2646,5.2696,5.2759,5.2783,5.2852,5.293,5.2928,5.3017,5.3065,5.3156,5.3188,5.3256,5.3228,5.3259,5.3266,5.3274,5.3281,5.3071,5.3268,5.3268,5.3267,5.3267,5.3266,0,5.2601,5.2634,5.2706,5.2782,5.2843,5.2821,5.2878,5.293,5.3009,5.3057,5.3119,5.3211,5.3284,5.3315,5.3386,5.3434,5.3427,5.3453,5.3449,5.3455,5.3302,5.3276,5.3458,5.3458,5.3458,5.3458,5.3458,5.3458,5.2709,5.2817,5.2829,5.2956,5.2988,5.3076,5.3111,5.3157,5.3195,5.33,5.3362,5.3382,5.3423,5.3497,5.3562,5.3569,5.3596,5.3626,5.3629,5.3485,5.3466,5.3447,5.3423,5.3632,5.3633,5.3776,5.3777,5.3778]}]]